Fort Stewart, GA

10:34 PM EST on December 05, 2016 (GMT -0500)
Wright Army Air Field

Weather History for KLHW - March, 2015

Change the Weather History Date:

Friday, March 13, 2015

  Actual Average Record
Temperature  
Mean Temperature 60 °F -  
Max Temperature 64 °F 75 °F 89 °F (1967)
Min Temperature 56 °F 50 °F 26 °F (1998)
Degree Days  
Heating Degree Days 5    
Growing Degree Days 10 (Base 50)    
Moisture  
Dew Point 57 °F    
Average Humidity 91    
Maximum Humidity 100    
Minimum Humidity 65    
Precipitation  
Precipitation 0.40 in - - ()
Sea Level Pressure  
Sea Level Pressure 30.26 in    
Wind  
Wind Speed 8 mph (NE)    
Max Wind Speed 15 mph    
Max Gust Speed 24 mph    
Visibility 6 miles    
Events Rain    
Averages and records for this station are not official NWS values.
T = Trace of Precipitation, MM = Missing Value Source: NWS Daily Summary

Daily Weather History Graph

Daily Weather History Graph

Search for Another Location

Airport or City:

Trip Planner

Search our weather history database for the weather conditions in past years. The results will help you decide how hot, cold, wet, or windy it might be!

Date:

Astronomy

Mar. 13, 2015 Rise Set
Actual Time 7:39 AM EDT 7:32 PM EDT
Civil Twilight 7:14 AM EDT 7:57 PM EDT
Nautical Twilight 6:46 AM EDT 8:25 PM EDT
Astronomical Twilight 6:18 AM EDT 8:53 PM EDT
Moon 1:53 AM EDT (3/13) 12:41 PM EDT (3/13)
Length of Visible Light 12h 42m
Length of Day
11h 53m
Waning Gibbous, 51% of the Moon is Illuminated
Mar 13
Waning Gibbous
Mar 13
Last Quarter
Mar 20
New
Mar 27
First Quarter
Apr 4
Full

Hourly Weather History & Observations

Time (EDT) Temp. Dew Point Humidity Pressure Visibility Wind Dir Wind Speed Gust Speed Precip Events Conditions
12:58 AM 60.1 °F 48.4 °F 65% 30.34 in 10.0 mi NE 10.4 mph - N/A   Overcast
1:58 AM 59.9 °F 49.3 °F 68% 30.33 in 10.0 mi ENE 12.7 mph - N/A   Overcast
2:58 AM 59.9 °F 50.2 °F 70% 30.32 in 10.0 mi ENE 12.7 mph - N/A   Overcast
3:58 AM 59.5 °F 49.8 °F 70% 30.31 in 10.0 mi ENE 15.0 mph 24.2 mph N/A   Overcast
4:58 AM 59.2 °F 51.1 °F 74% 30.31 in 10.0 mi ENE 10.4 mph - N/A   Overcast
5:25 AM 59.0 °F 51.8 °F 77% 30.29 in 8.0 mi ENE 10.4 mph 18.4 mph N/A   Light Drizzle
5:34 AM 57.2 °F 51.8 °F 82% 30.30 in 5.0 mi ENE 6.9 mph - N/A   Haze
5:36 AM 57.2 °F 51.8 °F 82% 30.30 in 6.0 mi ENE 8.1 mph - N/A Rain Light Rain
5:47 AM 57.2 °F 53.6 °F 88% 30.30 in 8.0 mi NE 10.4 mph - N/A   Overcast
5:58 AM 56.8 °F 53.1 °F 87% 30.31 in 10.0 mi ENE 6.9 mph - 0.00 in   Overcast
6:13 AM 57.2 °F 53.6 °F 88% 30.30 in 9.0 mi ENE 9.2 mph - N/A   Overcast
6:28 AM 57.2 °F 53.6 °F 88% 30.30 in 9.0 mi ENE 8.1 mph - N/A   Overcast
6:58 AM 56.5 °F 53.2 °F 89% 30.31 in 10.0 mi ENE 10.4 mph - N/A   Overcast
7:58 AM 56.8 °F 52.7 °F 86% 30.32 in 10.0 mi ENE 9.2 mph - N/A   Overcast
8:03 AM 57.2 °F 51.8 °F 82% 30.31 in 10.0 mi ENE 8.1 mph - N/A Rain Light Rain
8:15 AM 57.2 °F 53.6 °F 88% 30.31 in 10.0 mi ENE 11.5 mph 19.6 mph N/A   Overcast
8:18 AM 57.2 °F 53.6 °F 88% 30.31 in 10.0 mi ENE 10.4 mph 19.6 mph N/A Rain Light Rain
8:32 AM 57.2 °F 53.6 °F 88% 30.31 in 10.0 mi ENE 12.7 mph - N/A   Overcast
8:47 AM 57.2 °F 53.6 °F 88% 30.32 in 10.0 mi ENE 6.9 mph - N/A Rain Light Rain
8:58 AM 56.8 °F 53.1 °F 87% 30.33 in 8.0 mi ENE 9.2 mph - 0.00 in Rain Light Rain
8:59 AM 57.2 °F 53.6 °F 88% 30.32 in 9.0 mi ENE 8.1 mph - N/A   Overcast
9:18 AM 57.2 °F 53.6 °F 88% 30.33 in 6.0 mi ENE 6.9 mph - N/A   Light Drizzle
9:28 AM 57.2 °F 53.6 °F 88% 30.33 in 3.0 mi ENE 6.9 mph - N/A   Overcast
9:33 AM 57.2 °F 53.6 °F 88% 30.33 in 5.0 mi ENE 8.1 mph - N/A   Overcast
9:45 AM 57.2 °F 53.6 °F 88% 30.33 in 6.0 mi ENE 9.2 mph - N/A   Light Drizzle
9:54 AM 57.2 °F 53.6 °F 88% 30.33 in 4.0 mi ENE 10.4 mph - N/A   Overcast
9:58 AM 56.8 °F 54.3 °F 91% 30.34 in 4.0 mi ENE 10.4 mph - 0.00 in   Overcast
10:02 AM 57.2 °F 55.4 °F 94% 30.33 in 3.0 mi ENE 9.2 mph - N/A Rain Light Rain
10:11 AM 57.2 °F 53.6 °F 88% 30.33 in 5.0 mi ENE 10.4 mph - N/A   Overcast
10:58 AM 57.2 °F 54.9 °F 92% 30.32 in 10.0 mi ENE 11.5 mph - 0.01 in   Overcast
11:58 AM 58.1 °F 55.2 °F 90% 30.32 in 10.0 mi ENE 10.4 mph - N/A   Overcast
12:24 PM 59.0 °F 55.4 °F 88% 30.31 in 9.0 mi ENE 10.4 mph - N/A Rain Light Rain
12:31 PM 59.0 °F 55.4 °F 88% 30.30 in 4.0 mi NE 8.1 mph - N/A   Overcast
12:33 PM 59.0 °F 55.4 °F 88% 30.30 in 4.0 mi ENE 6.9 mph - N/A Rain Light Rain
12:53 PM 57.2 °F 55.4 °F 94% 30.29 in 5.0 mi NE 8.1 mph - N/A Rain Light Rain
12:58 PM 57.9 °F 55.8 °F 92% 30.30 in 4.0 mi NE 6.9 mph - 0.01 in Rain Rain
1:03 PM 57.2 °F 55.4 °F 94% 30.28 in 2.0 mi NE 8.1 mph - N/A Rain Rain
1:23 PM 57.2 °F 55.4 °F 94% 30.28 in 4.0 mi NE 8.1 mph 17.3 mph N/A Rain Light Rain
1:58 PM 58.1 °F 56.1 °F 93% 30.28 in 6.0 mi ENE 8.1 mph - 0.06 in Rain Light Rain
2:03 PM 59.0 °F 57.2 °F 94% 30.27 in 6.0 mi ENE 5.8 mph - N/A Rain Light Rain
2:33 PM 59.0 °F 57.2 °F 94% 30.27 in 2.5 mi Calm Calm - N/A Rain Heavy Rain
2:43 PM 59.0 °F 57.2 °F 94% 30.25 in 4.0 mi NNE 4.6 mph - N/A Rain Light Rain
2:58 PM 59.0 °F 57.4 °F 94% 30.25 in 4.0 mi NNE 3.5 mph - 0.06 in Rain Rain
3:26 PM 59.0 °F 57.2 °F 94% 30.23 in 1.5 mi NNE 4.6 mph - N/A Rain Light Rain
3:28 PM 59.0 °F 57.2 °F 94% 30.23 in 6.0 mi NNE 4.6 mph - N/A Rain Light Rain
3:40 PM 59.0 °F 59.0 °F 100% 30.23 in 1.5 mi NNE 5.8 mph - N/A Rain Rain
3:58 PM 59.9 °F 58.5 °F 95% 30.23 in 2.0 mi North 4.6 mph - 0.04 in Rain Light Rain
4:03 PM 60.8 °F 59.0 °F 94% 30.22 in 2.0 mi North 2.3 mph - N/A Rain Light Rain
4:18 PM 60.8 °F 59.0 °F 94% 30.22 in 3.0 mi North 3.5 mph - N/A Rain Rain
4:49 PM 60.8 °F 59.0 °F 94% 30.22 in 0.8 mi North 2.3 mph - N/A Rain Light Rain
4:58 PM 60.6 °F 59.2 °F 95% 30.22 in 1.0 mi North 4.6 mph - 0.08 in Rain Heavy Rain
5:06 PM 60.8 °F 59.0 °F 94% 30.20 in 1.0 mi North 4.6 mph - N/A Rain Rain
5:16 PM 60.8 °F 59.0 °F 94% 30.20 in 4.0 mi North 4.6 mph - N/A Rain Rain
5:21 PM 60.8 °F 59.0 °F 94% 30.20 in 2.0 mi Calm Calm - N/A Rain Heavy Rain
5:28 PM 60.8 °F 59.0 °F 94% 30.20 in 1.0 mi Calm Calm - N/A Rain Rain
5:48 PM 60.8 °F 59.0 °F 94% 30.19 in 2.0 mi NNW 8.1 mph - N/A Rain Rain
5:58 PM 60.6 °F 59.2 °F 95% 30.20 in 2.0 mi NNE 8.1 mph - 0.08 in Rain Light Rain
6:14 PM 60.8 °F 60.8 °F 100% 30.19 in 2.5 mi NNE 6.9 mph - N/A Rain Light Rain
6:21 PM 60.8 °F 60.8 °F 100% 30.18 in 3.0 mi North 5.8 mph - N/A Rain Light Rain
6:29 PM 60.8 °F 60.8 °F 100% 30.18 in 3.0 mi North 5.8 mph - N/A Rain Light Rain
6:43 PM 62.6 °F 60.8 °F 94% 30.18 in 3.0 mi North 3.5 mph - N/A   Overcast
6:59 PM 62.2 °F 60.8 °F 95% 30.19 in 10.0 mi North 3.5 mph - 0.00 in   Overcast
7:19 PM 62.6 °F 60.8 °F 94% 30.20 in 4.0 mi Calm Calm - N/A   Overcast
7:54 PM 62.6 °F 60.8 °F 94% 30.19 in 10.0 mi NE 4.6 mph - N/A   Overcast
7:58 PM 62.4 °F 61.0 °F 95% 30.20 in 10.0 mi NNE 3.5 mph - N/A   Overcast
8:28 PM 62.6 °F 60.8 °F 94% 30.19 in 10.0 mi Calm Calm - N/A   Overcast
8:58 PM 63.1 °F 61.7 °F 95% 30.20 in 10.0 mi NE 1.2 mph - N/A   Overcast
9:23 PM 62.6 °F 60.8 °F 94% 30.20 in 10.0 mi Calm Calm - N/A   Overcast
9:43 PM 62.6 °F 60.8 °F 94% 30.19 in 10.0 mi Calm Calm - N/A   Overcast
9:58 PM 62.8 °F 61.7 °F 96% 30.20 in 10.0 mi ENE 3.5 mph - 0.01 in   Overcast
10:13 PM 62.6 °F 60.8 °F 94% 30.18 in 10.0 mi ENE 3.5 mph - N/A   Overcast
10:58 PM 62.6 °F 62.6 °F 100% 30.19 in 10.0 mi WSW 5.8 mph - N/A   Mostly Cloudy
11:14 PM 62.6 °F 62.6 °F 100% 30.17 in 10.0 mi Calm Calm - N/A Rain Light Rain
11:19 PM 62.6 °F 62.6 °F 100% 30.17 in 7.0 mi Calm Calm - N/A Rain Light Rain
11:24 PM 62.6 °F 62.6 °F 100% 30.17 in 6.0 mi Variable 4.6 mph - N/A Rain Light Rain
11:29 PM 62.6 °F 62.6 °F 100% 30.17 in 5.0 mi SSW 2.3 mph - N/A Rain Light Rain
11:39 PM 64.4 °F 62.6 °F 94% 30.17 in 8.0 mi Calm Calm - N/A Rain Light Rain
11:42 PM 64.4 °F 62.6 °F 94% 30.17 in 10.0 mi East 1.2 mph - N/A   Overcast
11:52 PM 64.4 °F 62.6 °F 94% 30.16 in 10.0 mi ENE 3.5 mph - N/A   Overcast
11:58 PM 63.5 °F 62.1 °F 95% 30.17 in 10.0 mi NE 3.5 mph - 0.05 in   Mostly Cloudy